Regional Weather Roundup
Issued by NWS

Home | Current Version | Previous Version | Text Only | Print | Product List | Glossary On
Versions: 1 2 3 4 5 6 7 8 9 10 11 12 13 14 15 16 17 18 19 20 21 22 23 24 25 26 27 28 29 30 31 32 33 34 35 36 37 38 39 40 41 42 43 44 45 46 47 48 49 50
000
ASUS45 KPSR 240510
RWRAZ

ARIZONA REGIONAL HOURLY WEATHER ROUNDUP
NATIONAL WEATHER SERVICE PHOENIX AZ
1000 PM MST TUE SEP 23 2014

NOTE: FAIR INDICATES FEW OR NO CLOUDS BELOW 12,000 FEET WITH NO
SIGNIFICANT WEATHER AND/OR OBSTRUCTIONS TO VISIBILITY.

AZZ001>003-036-240600-
NORTHWEST ARIZONA

CITY           SKY/WX    TMP DP  RH WIND       PRES   REMARKS
BULLHEAD CITY  LGT RAIN  86  30  13 CALM      29.86S
KINGMAN        CLEAR     69  33  26 S10       30.07R
$$

AZZ004>008-015-016-018-240600-
NORTH CENTRAL ARIZONA

CITY           SKY/WX    TMP DP  RH WIND       PRES   REMARKS
GRAND CANYON   CLEAR     46  33  60 CALM      30.30S
PRESCOTT       CLEAR     63  34  33 CALM      30.19R
FLAGSTAFF      CLEAR     50  39  66 CALM      30.34R
PAYSON         CLEAR     68  46  45 CALM      30.20S
PAGE           CLEAR     73  39  29 CALM      30.12R
$$

AZZ009>014-017-240600-
NORTHEAST ARIZONA

CITY           SKY/WX    TMP DP  RH WIND       PRES   REMARKS
WINSLOW        CLEAR     67  41  38 SW8       30.17R
SAINT JOHNS    CLEAR     63  45  51 CALM      30.21R
WINDOW ROCK    CLEAR     58  46  64 CALM      30.31
SHOW LOW       CLEAR     59  46  63 SW5       30.30R
$$

AZZ023-240600-
GREATER PHOENIX AREA

CITY           SKY/WX    TMP DP  RH WIND       PRES   REMARKS
PHOENIX        CLEAR     88  53  30 SW5       29.85S
BUCKEYE          N/A     81  45  28 N8        29.87S
LUKE AFB       CLEAR     84  46  26 NW12      29.86S
DEER VALLEY    CLEAR     82  48  30 N3        29.88S
SCOTTSDALE     CLEAR     87  48  25 CALM      29.90R
MESA-GATEWAY   PTCLDY    86  54  32 CALM      29.90R
$$

AZZ027-028-240600-
SOUTHWEST MARICOPA COUNTY AND PINAL COUNTY

CITY           SKY/WX    TMP DP  RH WIND       PRES   REMARKS
CASA GRANDE    CLEAR     81  48  32 CALM      29.89F
GILA BEND      CLEAR     84  43  23 S5        29.86R
$$

AZZ503-504-507>509-240600-
SOUTHEAST ARIZONA

CITY           SKY/WX    TMP DP  RH WIND       PRES   REMARKS
TUCSON         CLEAR     86  49  27 W6        30.00R
DAVIS-MONTHAN  CLEAR     85  51  30 NW6       29.98R
NOGALES        PTCLDY    72  65  78 E5        30.08S
SIERRA VISTA   CLEAR     72  63  73 S7        30.15R
DOUGLAS        CLEAR     71  62  73 CALM      30.11R
SAFFORD        CLEAR     78  64  61 E6        30.02R
$$

AZZ020-021-025-026-031-240600-
SOUTHWEST ARIZONA

CITY           SKY/WX    TMP DP  RH WIND       PRES   REMARKS
YUMA           CLEAR     94  54  25 W9        29.80R
$$

CAZ031-033-041-043-047-048-061-240600-
SOUTHERN CALIFORNIA

CITY           SKY/WX    TMP DP  RH WIND       PRES   REMARKS
DOWNTOWN L.A.  CLEAR     67  62  84 CALM      29.90S
L.A. AIRPORT   CLEAR     66  63  90 SW5       29.91S
SAN DIEGO      PTCLDY    72  66  81 N6        29.92R
BURBANK        CLEAR     73  46  38 CALM      29.92R
ONTARIO        CLEAR     75  54  47 W5        29.93R
RIVERSIDE      CLEAR     77  57  50 CALM      29.93R
PALM SPRINGS   CLEAR     93  50  23 CALM      29.85R
EL CENTRO NAS  CLEAR     89  56  32 SW7       29.79R
IMPERIAL       CLEAR     91  55  29 CALM      29.78R
BLYTHE         CLEAR     90  50  25 NE6       29.81S
NEEDLES        CLEAR     86  38  18 W9        29.86S
$$

NVZ020-UTZ003-240600-
SOUTHERN NEVADA-UTAH

CITY           SKY/WX    TMP DP  RH WIND       PRES   REMARKS
LAS VEGAS      CLEAR     85  37  18 SW8       29.93R
SALT LAKE CITY PTCLDY    68  49  50 S8        30.11S
$$

NMZ009-TXZ055-240600-
NEW MEXICO-WEST TEXAS

CITY           SKY/WX    TMP DP  RH WIND       PRES   REMARKS
ALBUQUERQUE    CLEAR     68  57  68 SE6       30.22R
EL PASO        CLEAR     73  58  59 E6        30.14R
$$


........................KEY........................
SKY/WX - SKY CONDITION/WEATHER
TMP    - TEMPERATURE IN FAHRENHEIT
DP     - DEW POINT IN FAHRENHEIT
RH     - RELATIVE HUMIDITY IN PERCENT
WIND   - DIRECTION AND SPEED IN MILES PER HOUR (MPH)
VRB    - VARIABLE WIND DIRECTION
PRES   - MEAN SEA LEVEL PRESSURE IN INCHES OF MERCURY
         F - FALLING PRESSURE   R - RISING PRESSURE
         S - STEADY PRESSURE
VSB    - VISIBILITY IN MILES
HX     - HEAT INDEX IN FAHRENHEIT
WCI    - WIND CHILL INDEX IN FAHRENHEIT
TC     - TEMPERATURE IN CELSIUS WHICH IS ALSO KNOWN AS
         TEMPERATURE IN CENTIGRADE
AFB    - AIR FORCE BASE
         LUKE AFB IS LUKE AIR FORCE BASE
         DAVIS-MONTHAN IS DAVIS-MONTHAN AIR FORCE BASE
NAS    - NAVAL AIR STATION
         EL CENTRO NAS IS EL CENTRO NAVAL AIR STATION
N/A    - NOT AVAILABLE


USA.gov is the U.S. government's official web portal to all federal, state and local government web resources and services.